Location: Unspecified
(0.0000°N, 0.0000°E)
Time: 04:30:29
(UTC+00:00)

METEOR M2 - Pass Details

Date: 05 July 2020
Orbit: 818 x 828 km, 98.5° (Epoch: 13 August)

Event Time Altitude Azimuth Distance (km) Brightness Sun altitude
Exits shadow 20:30:34 41° 256° (WSW) 1,187 ? -33.2°
Maximum altitude 20:30:38 41° 257° (WSW) 1,187 ? -33.3°
Drops below altitude 10° 20:35:38 10° 326° (NNW) 2,420 ? -34.4°
Sets 20:38:06 0° 334° (NNW) 3,351 ? -34.9°
